Regional Weather Roundup
Issued by NWS

Home | Current Version | Previous Version | Graphics & Text | Print | Product List | Glossary On
Versions: 1 2 3 4 5 6 7 8 9 10 11 12 13 14 15 16 17 18 19 20 21 22 23 24 25 26 27
000
ASUS45 KBOU 192107
RWRCO

WEATHER ROUNDUP FOR COLORADO
NATIONAL WEATHER SERVICE DENVER/BOULDER CO
300 PM MDT WED JUL 19 2017

NOTE: "FAIR" INDICATES FEW OR NO CLOUDS BELOW 12000 FEET WITH NO
SIGNIFICANT WEATHER AND/OR OBSTRUCTIONS TO VISIBILITY.

COZ001>005-013-030-031-192200-
...NORTHWEST COLORADO...

CITY           SKY/WX    TMP DP  RH WIND       PRES   REMARKS
CRAIG          FAIR      91  41  17 VRB5      30.19F
HAYDEN         FAIR      81  45  28 N6G16     30.24S
MEEKER         FAIR      89  46  22 W17       30.21F
RABBIT EARS PA CLOUDY    61  45  55 N6        30.62S
STEAMBOAT SPGS FAIR      87  47  24 SE9       30.26F
WALDEN         FAIR      81  36  19 S7        30.37F
$$

COZ006>008-011-192200-
...WEST CENTRAL VALLEYS...

CITY           SKY/WX    TMP DP  RH WIND       PRES   REMARKS
GRAND JUNCTION FAIR      93  52  24 W12       30.09F
MONTROSE       LGT RAIN  81  56  42 S14G24    30.21R
EAGLE          PTSUNNY   88  45  22 W15       30.24F
RIFLE          FAIR      86  53  32 S15       30.16S THUNDER
DELTA          FAIR      99  47  17 S6        30.14S
NUCLA          PTSUNNY   91  45  19 NE7       30.24F
$$

COZ017>023-064>068-192200-
...SOUTHWEST COLORADO...

CITY           SKY/WX    TMP DP  RH WIND       PRES   REMARKS
DURANGO        FAIR      87  45  23 SW8       30.29F
CORTEZ         FAIR      93  47  20 SW14G22   30.22F
PAGOSA SPRINGS FAIR      84  40  20 SW7       30.38F
TELLURIDE      FAIR      65  52  62 E10       30.54F
WOLF CREEK PAS FAIR      63  43  48 S16G22    30.79F
$$

COZ009-010-012-014-032>034-037-058>063-192200-
...CENTRAL COLORADO...

CITY           SKY/WX    TMP DP  RH WIND       PRES   REMARKS
ASPEN          LGT RAIN  71  54  54 SE14      30.36F
BUENA VISTA    FAIR      82  37  20 CALM      30.35F
COPPER MTN     CLOUDY    64  41  42 CALM      30.75R
BERTHOUD PASS  CLOUDY    55  41  58 SE21G35   30.77F
COTTONWOOD PAS PTSUNNY   77  36  22 CALM      30.54S
GUNNISON       FAIR      79  50  36 N14       30.35F
KREMMLING      FAIR      86  41  20 NW10G20   30.32R
LEADVILLE      TSTM      56  46  69 SW8G17    30.58R
MONARCH PASS   FAIR      66  41  39 SW13G26   30.83F
SALIDA         FAIR      91  44  19 S14       30.37F
SUNLIGHT       CLOUDY    50  45  81 SW8       30.68R
WILKERSON PASS PTSUNNY   72  36  26 W3        30.69F
$$

COZ069>075-192200-
...SAN LUIS VALLEY/SANGRE DE CRISTO MOUNTAINS...

CITY           SKY/WX    TMP DP  RH WIND       PRES   REMARKS
ALAMOSA        FAIR      82  47  29 SE10      30.36F
DEL NORTE      FAIR      81  51  35 SE10      30.38F
LA VETA PASS   NOT AVBL
SAGUACHE         N/A    N/A N/A N/A MISG        N/A
$$

COZ035-036-038>040-192200-
...NORTHERN COLORADO FRONT RANGE...

CITY           SKY/WX    TMP DP  RH WIND       PRES   REMARKS
DENVER INTL AP FAIR      98  39  13 VRB5      30.10F
DMNS CITY PARK   N/A     95  37  13 E3G14     30.10S
AURORA         NOT AVBL
FRONT RANGE AP FAIR      99  39  12 NE8       30.12F
ERIE MUNI ARPT FAIR      99  37  11 E7G16     30.08S
BOULDER MUN AP FAIR      99  43  14 E8        30.08F
CENTENNIAL     FAIR      96  38  13 VRB6      30.14F
BROOMFIELD     FAIR      95  37  13 E8G17     30.14S
FORT COLLINS   FAIR      99  53  21 S9        30.07F
LONGMONT       FAIR     101  43  13 E5        30.08F
$$

COZ041-046-047-076>085-087-088-192200-
...PIKES PEAK/PALMER DIVIDE AND SOUTHERN FOOTHILLS...

CITY           SKY/WX    TMP DP  RH WIND       PRES   REMARKS
COLO. SPRINGS  FAIR      91  50  24 S10G20    30.21F
A. F. ACADEMY  NOT AVBL
SCHRIEVER AFB  NOT AVBL
CHEYENNE MTN   NOT AVBL
ELLICOTT       FAIR     N/A N/A N/A S14G21    30.20F
FALCON           N/A     87  45  23 S10G20    30.28F
FORT CARSON    FAIR      92  50  24 S14       30.16F
LIMON          FAIR      93  50  23 S16G25    30.14F
MONUMENT HILL  FAIR      86  48  26 S8G16     30.28F
CANON CITY     SUNNY     97  55  24 E12G18    30.11F
WALSENBURG     FAIR      97  45  16 SW9G18    30.19F
TRINIDAD       FAIR      95  43  16 S9G22     30.19F
$$

COZ042>045-048>051-090-091-192200-
...NORTHEAST COLORADO...

CITY           SKY/WX    TMP DP  RH WIND       PRES   REMARKS
GREELEY ARPT   FAIR      99  51  19 VRB5      30.04F
AKRON          FAIR     101  48  16 S14G26    30.05F
BURLINGTON     FAIR      97  59  28 S16G26    30.08F
WRAY           NOT AVBL
YUMA           FAIR      93  63  36 S18G24    30.02F
STERLING       FAIR     102  54  19 S6        29.97F
HOLYOKE        FAIR      99  59  26 S16       30.00F
FORT MORGAN    FAIR     102  45  14 E6        30.04F
$$

COZ086-089-092>099-192200-
...SOUTHEAST COLORADO...

CITY           SKY/WX    TMP DP  RH WIND       PRES   REMARKS
PUEBLO         FAIR     101  48  16 VRB6      30.05F
LA JUNTA       FAIR      99  52  20 S9        30.06F
LAMAR          FAIR      99  55  23 S17G24    30.03F
SPRINGFIELD      N/A     94  50  22 S15G23    30.12F
$$




USA.gov is the U.S. government's official web portal to all federal, state and local government web resources and services.